When you browse on this site, cookies collect data to enhance your experience and personalize the content and advertising you see.
Visit our Privacy Policy to learn more. By continuing to use the site, you agree to this use of cookies and data.
  • In Hungary
  • List of Countries
  • For 7 days
  • Water Temperature
  • Satellite Maps
  • Weather Map
  • News
  • Weather Widgets
  • user-avatar
    Login

    Hourly Weather Gloucester

    Today, 15 February, Friday

    Time Temperature Precipitation Wind Pressure Humidity
    00:00 +3°C° 0 mm 2 mps 765 mmHg 93%
    01:00 +3°C° 0 mm 2 mps 764 mmHg 93%
    02:00 +3°C° 0 mm 2 mps 764 mmHg 93%
    03:00 +2°C° 0 mm 3 mps 764 mmHg 94%
    04:00 +2°C° 0 mm 3 mps 764 mmHg 93%
    05:00 +2°C° 0 mm 3 mps 764 mmHg 93%
    06:00 +2°C° 0 mm 3 mps 764 mmHg 93%
    07:00 +3°C° 0 mm 3 mps 763 mmHg 91%
    08:00 +4°C° 0 mm 3 mps 763 mmHg 90%
    09:00 +5°C° 0 mm 3 mps 763 mmHg 88%
    10:00 +6°C° 0 mm 4 mps 763 mmHg 83%
    11:00 +8°C° 0 mm 4 mps 763 mmHg 79%
    12:00 +11°C° 0 mm 4 mps 763 mmHg 73%
    13:00 +12°C° 0 mm 4 mps 762 mmHg 73%
    14:00 +12°C° 0 mm 5 mps 762 mmHg 72%
    15:00 +13°C° 0 mm 5 mps 761 mmHg 72%
    16:00 +10°C° 0 mm 5 mps 761 mmHg 78%
    17:00 +8°C° 0 mm 4 mps 761 mmHg 84%
    18:00 +6°C° 0 mm 4 mps 761 mmHg 91%
    19:00 +6°C° 0 mm 4 mps 760 mmHg 91%
    20:00 +6°C° 0 mm 4 mps 760 mmHg 92%
    21:00 +5°C° 0 mm 4 mps 760 mmHg 93%
    22:00 +5°C° 0 mm 5 mps 760 mmHg 93%
    23:00 +6°C° 0 mm 5 mps 760 mmHg 93%

    Tomorrow, 16 February, Saturday

    Time Temperature Precipitation Wind Pressure Humidity
    00:00 +6°C° 0 mm 5 mps 760 mmHg 92%
    01:00 +6°C° 0 mm 5 mps 760 mmHg 94%
    02:00 +6°C° 0 mm 5 mps 759 mmHg 95%
    03:00 +7°C° 0 mm 4 mps 759 mmHg 96%
    04:00 +7°C° 0 mm 4 mps 759 mmHg 96%
    05:00 +8°C° 0 mm 4 mps 759 mmHg 96%
    06:00 +9°C° 0 mm 5 mps 759 mmHg 96%
    07:00 +9°C° 0 mm 5 mps 759 mmHg 95%
    08:00 +9°C° 0 mm 5 mps 759 mmHg 95%
    09:00 +9°C° 0 mm 5 mps 759 mmHg 94%
    10:00 +9°C° 0 mm 5 mps 760 mmHg 91%
    11:00 +10°C° 0 mm 5 mps 760 mmHg 88%
    12:00 +11°C° 0 mm 6 mps 760 mmHg 85%
    13:00 +12°C° 0 mm 5 mps 759 mmHg 85%
    14:00 +12°C° 0 mm 5 mps 759 mmHg 85%
    15:00 +12°C° 0 mm 4 mps 759 mmHg 85%
    16:00 +12°C° 0 mm 5 mps 758 mmHg 88%
    17:00 +10°C° 0 mm 5 mps 758 mmHg 90%
    18:00 +10°C° 0 mm 5 mps 758 mmHg 92%
    19:00 +9°C° 0 mm 5 mps 758 mmHg 92%
    20:00 +9°C° 0 mm 5 mps 757 mmHg 92%
    21:00 +8°C° 0 mm 5 mps 757 mmHg 92%
    22:00 +8°C° 0 mm 5 mps 757 mmHg 93%
    23:00 +7°C° 0 mm 5 mps 756 mmHg 93%

    Day after tomorrow, 17 February, Sunday

    Time Temperature Precipitation Wind Pressure Humidity
    00:00 +7°C° 0 mm 5 mps 756 mmHg 94%
    01:00 +7°C° 0 mm 5 mps 755 mmHg 94%
    02:00 +7°C° 0 mm 5 mps 755 mmHg 95%
    03:00 +7°C° 0 mm 6 mps 754 mmHg 95%
    04:00 +7°C° 0 mm 6 mps 753 mmHg 93%
    05:00 +5°C° 0 mm 6 mps 753 mmHg 92%
    06:00 +5°C° 0 mm 6 mps 752 mmHg 90%
    07:00 +7°C° 0 mm 6 mps 752 mmHg 89%
    08:00 +7°C° 0 mm 6 mps 752 mmHg 89%
    09:00 +8°C° 0 mm 7 mps 752 mmHg 88%
    10:00 +9°C° 0 mm 7 mps 752 mmHg 86%
    11:00 +10°C° 0 mm 8 mps 752 mmHg 84%
    12:00 +11°C° 0 mm 8 mps 753 mmHg 82%
    13:00 +11°C° 0.3 mm 7 mps 753 mmHg 83%
    14:00 +10°C° 0.3 mm 7 mps 752 mmHg 84%
    15:00 +10°C° 0.3 mm 6 mps 752 mmHg 85%
    16:00 +9°C° 0 mm 5 mps 753 mmHg 86%
    17:00 +8°C° 0 mm 5 mps 753 mmHg 88%
    18:00 +7°C° 0 mm 4 mps 753 mmHg 90%
    19:00 +6°C° 0 mm 4 mps 753 mmHg 90%
    20:00 +6°C° 0 mm 4 mps 754 mmHg 91%
    21:00 +6°C° 0 mm 4 mps 754 mmHg 92%
    22:00 +6°C° 0 mm 4 mps 754 mmHg 92%
    23:00 +5°C° 0 mm 4 mps 754 mmHg 91%

    18 February, Monday

    Time Temperature Precipitation Wind Pressure Humidity
    00:00 +5°C° 0 mm 4 mps 754 mmHg 91%
    01:00 +5°C° 0 mm 4 mps 754 mmHg 92%
    02:00 +5°C° 0 mm 4 mps 754 mmHg 93%
    03:00 +5°C° 0 mm 4 mps 753 mmHg 93%
    04:00 +5°C° 0 mm 4 mps 753 mmHg 93%
    05:00 +5°C° 0 mm 4 mps 753 mmHg 94%
    06:00 +5°C° 0 mm 4 mps 753 mmHg 94%
    07:00 +5°C° 0 mm 4 mps 754 mmHg 92%
    08:00 +6°C° 0 mm 5 mps 754 mmHg 90%
    09:00 +6°C° 0 mm 5 mps 754 mmHg 88%
    10:00 +7°C° 0 mm 5 mps 755 mmHg 82%
    11:00 +8°C° 0 mm 6 mps 755 mmHg 76%
    12:00 +9°C° 0 mm 6 mps 755 mmHg 71%
    13:00 +9°C° 0 mm 6 mps 755 mmHg 70%
    14:00 +9°C° 0 mm 6 mps 755 mmHg 69%
    15:00 +9°C° 0 mm 6 mps 754 mmHg 68%
    16:00 +8°C° 0 mm 5 mps 755 mmHg 74%
    17:00 +6°C° 0 mm 4 mps 755 mmHg 80%
    18:00 +5°C° 0 mm 3 mps 755 mmHg 85%
    19:00 +4°C° 0 mm 3 mps 755 mmHg 86%
    20:00 +4°C° 0 mm 3 mps 756 mmHg 87%
    21:00 +3°C° 0 mm 3 mps 756 mmHg 88%
    22:00 +3°C° 0 mm 4 mps 756 mmHg 89%
    23:00 +3°C° 0 mm 4 mps 756 mmHg 89%

    19 February, Tuesday

    Time Temperature Precipitation Wind Pressure Humidity
    00:00 +3°C° 0 mm 4 mps 756 mmHg 90%
    01:00 +3°C° 0 mm 4 mps 756 mmHg 91%
    02:00 +3°C° 0 mm 4 mps 756 mmHg 92%
    03:00 +3°C° 0 mm 4 mps 756 mmHg 92%
    04:00 +3°C° 0 mm 4 mps 756 mmHg 93%
    05:00 +3°C° 0 mm 3 mps 756 mmHg 93%
    06:00 +2°C° 0 mm 3 mps 756 mmHg 93%
    07:00 +3°C° 0 mm 3 mps 757 mmHg 91%
    08:00 +4°C° 0 mm 4 mps 757 mmHg 89%
    09:00 +5°C° 0 mm 4 mps 757 mmHg 86%
    10:00 +6°C° 0 mm 4 mps 757 mmHg 80%
    11:00 +7°C° 0 mm 5 mps 758 mmHg 75%
    12:00 +8°C° 0 mm 6 mps 758 mmHg 69%
    13:00 +8°C° 0 mm 6 mps 757 mmHg 69%
    14:00 +8°C° 0 mm 6 mps 757 mmHg 69%
    15:00 +8°C° 0 mm 5 mps 757 mmHg 70%
    16:00 +7°C° 0 mm 5 mps 757 mmHg 74%
    17:00 +7°C° 0 mm 4 mps 757 mmHg 79%
    18:00 +6°C° 0 mm 4 mps 757 mmHg 83%
    19:00 +6°C° 0.1 mm 4 mps 757 mmHg 84%
    20:00 +6°C° 0.1 mm 5 mps 757 mmHg 85%
    21:00 +6°C° 0.1 mm 5 mps 757 mmHg 85%
    22:00 +5°C° 0 mm 6 mps 757 mmHg 85%
    23:00 +5°C° 0 mm 6 mps 757 mmHg 85%

    20 February, Wednesday

    Time Temperature Precipitation Wind Pressure Humidity
    00:00 +5°C° 0 mm 6 mps 757 mmHg 85%
    01:00 +5°C° 0 mm 6 mps 757 mmHg 87%
    02:00 +5°C° 0 mm 6 mps 757 mmHg 88%
    03:00 +5°C° 0 mm 6 mps 757 mmHg 89%
    04:00 +5°C° 0 mm 6 mps 757 mmHg 89%
    05:00 +6°C° 0 mm 5 mps 757 mmHg 90%
    06:00 +6°C° 0 mm 5 mps 757 mmHg 90%
    07:00 +5°C° 0 mm 6 mps 757 mmHg 89%
    08:00 +7°C° 0 mm 6 mps 757 mmHg 88%
    09:00 +7°C° 0 mm 6 mps 758 mmHg 86%
    10:00 +8°C° 0 mm 6 mps 758 mmHg 84%
    11:00 +9°C° 0 mm 7 mps 758 mmHg 81%
    12:00 +9°C° 0 mm 7 mps 759 mmHg 78%
    13:00 +10°C° 0 mm 7 mps 759 mmHg 78%
    14:00 +10°C° 0 mm 7 mps 759 mmHg 78%
    15:00 +10°C° 0 mm 6 mps 759 mmHg 78%
    16:00 +9°C° 0 mm 6 mps 759 mmHg 82%
    17:00 +9°C° 0 mm 5 mps 759 mmHg 86%
    18:00 +8°C° 0 mm 4 mps 759 mmHg 90%
    19:00 +8°C° 0 mm 4 mps 759 mmHg 91%
    20:00 +7°C° 0 mm 4 mps 759 mmHg 92%
    21:00 +7°C° 0 mm 4 mps 760 mmHg 93%
    22:00 +7°C° 0 mm 4 mps 760 mmHg 93%
    23:00 +7°C° 0 mm 3 mps 760 mmHg 94%
    Show more